Pittsburgh, PA

8:46 PM EST on February 27, 2017 (GMT -0500)
Allegheny County

Weather History for KAGC - March, 2013

Change the Weather History Date:

Monday, March 11, 2013

  Actual Average Record
Temperature  
Mean Temperature 55 °F -  
Max Temperature 63 °F 49 °F 68 °F (2014)
Min Temperature 46 °F 28 °F 14 °F (1998)
Degree Days  
Heating Degree Days 10    
Growing Degree Days 5 (Base 50)    
Moisture  
Dew Point 34 °F    
Average Humidity 48    
Maximum Humidity 93    
Minimum Humidity 29    
Precipitation  
Precipitation 0.10 in - - ()
Sea Level Pressure  
Sea Level Pressure 29.85 in    
Wind  
Wind Speed 9 mph (SSE)    
Max Wind Speed 18 mph    
Max Gust Speed 31 mph    
Visibility 9 miles    
Events Rain    
Averages and records for this station are not official NWS values.
T = Trace of Precipitation, MM = Missing Value Source: NWS Daily Summary

Daily Weather History Graph

Daily Weather History Graph

Search for Another Location

Airport or City:

Trip Planner

Search our weather history database for the weather conditions in past years. The results will help you decide how hot, cold, wet, or windy it might be!

Date:

Astronomy

Mar. 11, 2013 Rise Set
Actual Time 7:37 AM EDT 7:22 PM EDT
Civil Twilight 7:10 AM EDT 7:49 PM EDT
Nautical Twilight 6:38 AM EDT 8:21 PM EDT
Astronomical Twilight 6:06 AM EDT 8:53 PM EDT
Moon 7:10 AM EDT (3/11) 7:33 PM EDT (3/11)
Length of Visible Light 12h 39m
Length of Day
11h 45m
Waning Crescent, 0% of the Moon is Illuminated
Mar 11
Waning Crescent
Mar 11
New
Mar 19
First Quarter
Mar 27
Full
Apr 3
Last Quarter

Hourly Weather History & Observations

Time (EDT) Temp. Dew Point Humidity Pressure Visibility Wind Dir Wind Speed Gust Speed Precip Events Conditions
12:53 AM 55.0 °F 30.0 °F 38% 29.99 in 10.0 mi SSE 11.5 mph - N/A   Clear
1:53 AM 54.0 °F 30.0 °F 40% 29.98 in 10.0 mi SSE 8.1 mph - N/A   Clear
2:53 AM 53.1 °F 30.0 °F 41% 29.95 in 10.0 mi SSE 9.2 mph - N/A   Clear
3:53 AM 53.1 °F 30.0 °F 41% 29.93 in 10.0 mi SE 4.6 mph - N/A   Clear
4:53 AM 51.1 °F 30.0 °F 44% 29.91 in 10.0 mi SE 4.6 mph - N/A   Clear
5:53 AM 52.0 °F 28.9 °F 41% 29.91 in 10.0 mi SE 3.5 mph - N/A   Clear
6:53 AM 51.1 °F 30.0 °F 44% 29.92 in 10.0 mi SE 3.5 mph - N/A   Clear
7:53 AM 52.0 °F 28.9 °F 41% 29.93 in 10.0 mi ESE 3.5 mph - N/A   Clear
8:53 AM 52.0 °F 28.9 °F 41% 29.94 in 10.0 mi SE 3.5 mph - N/A   Clear
9:53 AM 53.1 °F 30.0 °F 41% 29.95 in 10.0 mi SSE 3.5 mph - N/A   Partly Cloudy
10:53 AM 55.0 °F 30.0 °F 38% 29.94 in 10.0 mi ESE 5.8 mph - N/A   Clear
11:53 AM 57.9 °F 30.9 °F 36% 29.91 in 10.0 mi ESE 6.9 mph - N/A   Clear
12:53 PM 61.0 °F 28.9 °F 30% 29.87 in 10.0 mi SE 10.4 mph - N/A   Partly Cloudy
1:53 PM 62.1 °F 28.9 °F 29% 29.85 in 10.0 mi SSE 12.7 mph 19.6 mph N/A   Mostly Cloudy
2:53 PM 61.0 °F 28.9 °F 30% 29.82 in 10.0 mi SSE 13.8 mph 24.2 mph N/A   Mostly Cloudy
3:53 PM 60.1 °F 28.0 °F 30% 29.78 in 10.0 mi SE 11.5 mph 20.7 mph N/A   Scattered Clouds
4:53 PM 59.0 °F 28.0 °F 31% 29.74 in 10.0 mi SE 11.5 mph 19.6 mph N/A   Mostly Cloudy
5:53 PM 59.0 °F 33.1 °F 38% 29.72 in 10.0 mi SSE 16.1 mph 24.2 mph N/A   Overcast
6:53 PM 57.0 °F 37.9 °F 49% 29.73 in 10.0 mi SSE 18.4 mph 31.1 mph 0.00 in Rain Light Rain
7:53 PM 53.1 °F 44.1 °F 71% 29.73 in 10.0 mi SSE 15.0 mph 20.7 mph 0.00 in Rain Light Rain
8:53 PM 53.1 °F 43.0 °F 69% 29.72 in 10.0 mi SSE 13.8 mph 20.7 mph 0.00 in   Scattered Clouds
9:53 PM 55.9 °F 42.1 °F 60% 29.72 in 10.0 mi South 12.7 mph 23.0 mph 0.00 in Rain Light Rain
10:53 PM 52.0 °F 48.0 °F 86% 29.75 in 8.0 mi South 15.0 mph 21.9 mph 0.04 in Rain Light Rain
11:47 PM 48.2 °F 46.4 °F 93% 29.76 in 3.0 mi WNW 8.1 mph 20.7 mph 0.05 in Rain Rain
11:53 PM 46.9 °F 45.0 °F 93% 29.78 in 3.0 mi West 12.7 mph 21.9 mph 0.06 in Rain Rain